New Bedford, MA

2:29 PM EDT on April 22, 2018 (GMT -0400)
New Bedford Regional

Weather History for KEWB - November, 2014

Change the Weather History Date:

Wednesday, November 12, 2014

  Actual Average Record
Temperature  
Mean Temperature 53 °F -  
Max Temperature 62 °F 52 °F 68 °F (1966)
Min Temperature 44 °F 39 °F 19 °F (2017)
Degree Days  
Heating Degree Days 12    
Growing Degree Days 3 (Base 50)    
Moisture  
Dew Point 49 °F    
Average Humidity 95    
Maximum Humidity 100    
Minimum Humidity 57    
Precipitation  
Precipitation 0.00 in - - ()
Sea Level Pressure  
Sea Level Pressure 29.90 in    
Wind  
Wind Speed 1 mph (WNW)    
Max Wind Speed 9 mph    
Max Gust Speed -    
Visibility 3 miles    
Events Fog    
Averages and records for this station are not official NWS values.
T = Trace of Precipitation, MM = Missing Value Source: NWS Daily Summary

Daily Weather History Graph

Daily Weather History Graph

Search for Another Location

Airport or City:

Astronomy

Nov. 12, 2014 Rise Set
Actual Time 6:29 AM EST 4:26 PM EST
Civil Twilight 5:59 AM EST 4:55 PM EST
Nautical Twilight 5:26 AM EST 5:29 PM EST
Astronomical Twilight 4:53 AM EST 6:01 PM EST
Moon 9:43 PM EST (11/12) 11:12 AM EST (11/12)
Length of Visible Light 10h 56m
Length of Day
9h 56m
Waning Gibbous, 68% of the Moon is Illuminated
Nov 12
Waning Gibbous
Nov 14
Last Quarter
Nov 22
New
Nov 29
First Quarter
Dec 6
Full

Hourly Weather History & Observations

Time (EST) Temp. Windchill Dew Point Humidity Pressure Visibility Wind Dir Wind Speed Gust Speed Precip Events Conditions
12:30 AM 48.0 °F - 48.0 °F 100% 29.95 in 0.2 mi Calm Calm - N/A Fog Fog
12:47 AM 46.4 °F - 46.4 °F 100% 29.95 in 0.5 mi Calm Calm - N/A Fog Fog
12:53 AM 48.0 °F - 48.0 °F 100% 29.95 in 0.8 mi Calm Calm - N/A   Mist
1:13 AM 48.0 °F - 48.0 °F 100% 29.94 in 0.2 mi Calm Calm - N/A Fog Fog
1:27 AM 48.0 °F - 48.0 °F 100% 29.94 in 0.2 mi Calm Calm - N/A Fog Fog
1:46 AM 46.9 °F - 46.0 °F 97% 29.93 in 0.2 mi Calm Calm - N/A Fog Fog
1:53 AM 46.0 °F - 46.0 °F 100% 29.94 in 0.5 mi Calm Calm - N/A Fog Fog
2:02 AM 46.0 °F 44.8 °F 46.0 °F 100% 29.93 in 0.8 mi NNW 3.5 mph - N/A   Overcast
2:10 AM 46.0 °F - 46.0 °F 100% 29.94 in 1.5 mi Calm Calm - N/A   Overcast
2:23 AM 46.0 °F 44.8 °F 46.0 °F 100% 29.93 in 0.5 mi NW 3.5 mph - N/A Fog Fog
2:53 AM 46.0 °F - 46.0 °F 100% 29.93 in 0.5 mi Calm Calm - N/A Fog Fog
3:04 AM 46.0 °F - 46.0 °F 100% 29.93 in 0.2 mi Calm Calm - N/A Fog Fog
3:37 AM 45.0 °F - 45.0 °F 100% 29.93 in 0.5 mi Calm Calm - N/A Fog Fog
3:49 AM 44.6 °F - 44.6 °F 100% 29.92 in 0.5 mi Calm Calm - N/A Fog Fog
3:53 AM 45.0 °F - 45.0 °F 100% 29.92 in 0.5 mi Calm Calm - N/A Fog Fog
4:28 AM 46.0 °F 44.8 °F 46.0 °F 100% 29.91 in 0.2 mi North 3.5 mph - N/A Fog Fog
4:53 AM 46.0 °F - 46.0 °F 100% 29.91 in 0.5 mi Calm Calm - N/A Fog Fog
5:13 AM 46.0 °F - 46.0 °F 100% 29.91 in 0.2 mi Calm Calm - N/A Fog Fog
5:53 AM 46.0 °F - 46.0 °F 100% 29.90 in 0.2 mi Calm Calm - N/A Fog Fog
6:53 AM 46.9 °F - 46.0 °F 97% 29.90 in 0.2 mi Calm Calm - N/A Fog Fog
7:53 AM 46.9 °F - 46.9 °F 100% 29.89 in 0.2 mi Calm Calm - N/A Fog Fog
8:21 AM 48.9 °F - 48.9 °F 100% 29.89 in 0.5 mi East 3.5 mph - N/A Fog Fog
8:53 AM 50.0 °F - 50.0 °F 100% 29.89 in 0.5 mi Calm Calm - N/A Fog Fog
9:07 AM 51.1 °F - 51.1 °F 100% 29.88 in 0.2 mi Calm Calm - N/A Fog Fog
9:53 AM 53.1 °F - 53.1 °F 100% 29.89 in 0.2 mi WNW 3.5 mph - N/A Fog Fog
10:53 AM 55.0 °F - 55.0 °F 100% 29.88 in 0.2 mi Calm Calm - N/A Fog Fog
11:07 AM 55.0 °F - 55.0 °F 100% 29.88 in 0.5 mi North 3.5 mph - N/A Fog Fog
11:24 AM 54.0 °F - 54.0 °F 100% 29.88 in 1.5 mi NNW 3.5 mph - N/A   Overcast
11:42 AM 55.0 °F - 55.0 °F 100% 29.87 in 2.5 mi North 3.5 mph - N/A   Overcast
11:53 AM 55.9 °F - 55.9 °F 100% 29.87 in 3.0 mi Calm Calm - N/A   Overcast
12:53 PM 57.0 °F - 55.9 °F 96% 29.85 in 3.0 mi Calm Calm - N/A   Overcast
1:53 PM 60.1 °F - 57.0 °F 90% 29.86 in 5.0 mi SSW 4.6 mph - N/A   Overcast
2:53 PM 62.1 °F - 57.9 °F 86% 29.85 in 10.0 mi WSW 4.6 mph - N/A   Overcast
3:37 PM 61.0 °F - 57.0 °F 87% 29.86 in 10.0 mi WSW 4.6 mph - N/A   Mostly Cloudy
3:51 PM 60.8 °F - 57.2 °F 88% 29.87 in 10.0 mi WSW 3.5 mph - N/A   Scattered Clouds
3:53 PM 60.1 °F - 57.0 °F 90% 29.87 in 10.0 mi WSW 3.5 mph - N/A   Partly Cloudy
4:53 PM 55.9 °F - 55.0 °F 97% 29.86 in 9.0 mi West 3.5 mph - N/A   Clear
5:06 PM 54.0 °F - 54.0 °F 100% 29.86 in 1.5 mi Calm Calm - N/A   Clear
5:13 PM 53.1 °F - 53.1 °F 100% 29.87 in 10.0 mi Calm Calm - N/A   Clear
5:28 PM 54.0 °F - 54.0 °F 100% 29.87 in 0.8 mi Calm Calm - N/A   Clear
5:33 PM 52.0 °F - 52.0 °F 100% 29.87 in 0.5 mi Calm Calm - N/A Fog Fog
5:43 PM 52.0 °F - 52.0 °F 100% 29.88 in 0.2 mi Calm Calm - N/A Fog Fog
5:50 PM 50.0 °F - 50.0 °F 100% 29.87 in 0.2 mi Calm Calm - N/A Fog Fog
5:53 PM 48.9 °F - 48.9 °F 100% 29.88 in 0.2 mi Calm Calm - N/A Fog Fog
6:22 PM 50.0 °F - 50.0 °F 100% 29.88 in 0.2 mi Calm Calm - N/A Fog Fog
6:30 PM 50.0 °F - 48.9 °F 96% 29.89 in 0.2 mi Calm Calm - N/A Fog Fog
6:40 PM 50.0 °F - 48.9 °F 96% 29.89 in 0.2 mi West 4.6 mph - N/A Fog Fog
6:47 PM 53.6 °F - 51.8 °F 94% 29.90 in 1.0 mi WNW 8.1 mph - N/A   Mist
6:48 PM 54.0 °F - 53.1 °F 97% 29.90 in 1.5 mi WNW 8.1 mph - N/A   Mostly Cloudy
6:50 PM 54.0 °F - 54.0 °F 100% 29.90 in 4.0 mi WNW 9.2 mph - N/A   Scattered Clouds
7:53 PM 55.9 °F - 50.0 °F 80% 29.92 in 10.0 mi WNW 8.1 mph - N/A   Overcast
8:53 PM 53.1 °F - 37.9 °F 57% 29.95 in 10.0 mi NW 6.9 mph - N/A   Partly Cloudy
9:53 PM 50.0 °F - 35.1 °F 57% 29.97 in 10.0 mi NW 8.1 mph - N/A   Clear
10:53 PM 48.0 °F - 34.0 °F 58% 29.97 in 10.0 mi Variable 5.8 mph - N/A   Clear
11:53 PM 45.0 °F 41.8 °F 34.0 °F 65% 29.98 in 10.0 mi Variable 5.8 mph - N/A   Clear